{"data":{"norad_id":48683,"epoch":"2026-09-19T12:17:59.252640Z","epoch_age_seconds":126545,"freshness":"FRESH","line1":"1 48683U 21044AX  26262.51249135  .00000308  00000+0  21685-4 0  9994","line2":"2 48683  53.1606 243.1795 0001495  82.4630 277.6541 15.31700478294200","mean_motion":15.31700478,"eccentricity":0.0001495,"inclination_deg":53.1606,"raan_deg":243.1795,"arg_perigee_deg":82.463,"mean_anomaly_deg":277.6541,"bstar":2.1685e-5,"rev_number":29420,"period_min":94.013158622256,"perigee_km":469.71466343513,"apogee_km":471.76247723066,"semimajor_km":6848.8755703329,"source":"CELESTRAK","updated_at":"2026-09-20T09:00:39.243639Z"}}